TimeCDT,TemperatureF,Dew PointF,Humidity,Sea Level PressureIn,VisibilityMPH,Wind Direction,Wind SpeedMPH,Gust SpeedMPH,PrecipitationIn,Events,Conditions,WindDirDegrees,DateUTC
12:15 AM,48.2,21.2,34,29.86,10.0,NW,12.7,-,N/A,,Clear,320,2012-10-18 05:15:00
12:35 AM,50.0,21.2,32,29.85,10.0,NNW,15.0,19.6,N/A,,Clear,330,2012-10-18 05:35:00
12:55 AM,50.0,21.2,32,29.86,10.0,West,11.5,-,N/A,,Clear,280,2012-10-18 05:55:00
1:15 AM,50.0,21.2,32,29.87,10.0,WNW,10.4,-,N/A,,Clear,300,2012-10-18 06:15:00
1:35 AM,48.2,21.2,34,29.88,10.0,West,10.4,-,N/A,,Clear,280,2012-10-18 06:35:00
1:55 AM,46.4,23.0,40,29.88,10.0,West,12.7,-,N/A,,Clear,260,2012-10-18 06:55:00
2:15 AM,46.4,24.8,43,29.89,10.0,West,11.5,-,N/A,,Scattered Clouds,260,2012-10-18 07:15:00
2:35 AM,46.4,24.8,43,29.89,10.0,West,12.7,-,N/A,,Scattered Clouds,280,2012-10-18 07:35:00
2:55 AM,46.4,24.8,43,29.90,10.0,West,11.5,-,N/A,,Partly Cloudy,270,2012-10-18 07:55:00
3:15 AM,46.4,24.8,43,29.90,10.0,West,12.7,-,N/A,,Partly Cloudy,280,2012-10-18 08:15:00
3:35 AM,46.4,24.8,43,29.91,10.0,West,15.0,-,N/A,,Clear,280,2012-10-18 08:35:00
3:55 AM,46.4,23.0,40,29.90,10.0,West,15.0,-,N/A,,Clear,280,2012-10-18 08:55:00
4:15 AM,46.4,23.0,40,29.91,10.0,West,18.4,23.0,N/A,,Clear,280,2012-10-18 09:15:00
4:35 AM,46.4,23.0,40,29.90,10.0,West,17.3,21.9,N/A,,Clear,280,2012-10-18 09:35:00
4:55 AM,44.6,23.0,43,29.90,10.0,West,19.6,24.2,N/A,,Clear,280,2012-10-18 09:55:00
5:15 AM,44.6,21.2,39,29.90,10.0,West,17.3,-,N/A,,Clear,280,2012-10-18 10:15:00
5:35 AM,44.6,21.2,39,29.90,10.0,West,16.1,-,N/A,,Clear,280,2012-10-18 10:35:00
5:55 AM,44.6,21.2,39,29.90,10.0,West,15.0,-,N/A,,Clear,280,2012-10-18 10:55:00
6:35 AM,44.6,21.2,39,29.90,10.0,WNW,19.6,24.2,N/A,,Clear,290,2012-10-18 11:35:00
6:55 AM,44.6,21.2,39,29.90,10.0,WNW,16.1,23.0,N/A,,Clear,290,2012-10-18 11:55:00
7:15 AM,44.6,19.4,37,29.91,10.0,WNW,19.6,26.5,N/A,,Clear,290,2012-10-18 12:15:00
7:35 AM,44.6,21.2,39,29.91,10.0,WNW,19.6,25.3,N/A,,Clear,290,2012-10-18 12:35:00
7:55 AM,44.6,19.4,37,29.91,10.0,WNW,19.6,24.2,N/A,,Clear,290,2012-10-18 12:55:00
8:15 AM,44.6,21.2,39,29.91,10.0,WNW,19.6,25.3,N/A,,Clear,290,2012-10-18 13:15:00
8:35 AM,46.4,19.4,34,29.91,10.0,WNW,20.7,27.6,N/A,,Clear,290,2012-10-18 13:35:00
8:55 AM,46.4,21.2,37,29.91,10.0,WNW,19.6,28.8,N/A,,Clear,290,2012-10-18 13:55:00
9:15 AM,48.2,21.2,34,29.91,10.0,WNW,25.3,32.2,N/A,,Clear,300,2012-10-18 14:15:00
9:35 AM,50.0,19.4,30,29.92,10.0,WNW,27.6,34.5,N/A,,Clear,300,2012-10-18 14:35:00
9:55 AM,51.8,19.4,28,29.91,10.0,NW,28.8,39.1,N/A,,Clear,310,2012-10-18 14:55:00
10:15 AM,53.6,19.4,26,29.91,10.0,NW,27.6,40.3,N/A,,Clear,310,2012-10-18 15:15:00
10:35 AM,53.6,19.4,26,29.91,10.0,NW,25.3,41.4,N/A,,Clear,310,2012-10-18 15:35:00
10:55 AM,55.4,19.4,25,29.90,10.0,NW,34.5,48.3,N/A,,Clear,310,2012-10-18 15:55:00
11:15 AM,57.2,19.4,23,29.90,10.0,NW,36.8,44.9,N/A,,Clear,310,2012-10-18 16:15:00
11:35 AM,57.2,19.4,23,29.90,10.0,NW,34.5,47.2,N/A,,Clear,310,2012-10-18 16:35:00
11:55 AM,57.2,19.4,23,29.89,10.0,NW,32.2,46.0,N/A,,Clear,310,2012-10-18 16:55:00
12:15 PM,59.0,19.4,22,29.89,9.0,NW,34.5,48.3,N/A,,Clear,310,2012-10-18 17:15:00
12:35 PM,60.8,19.4,20,29.88,8.0,NW,33.4,48.3,N/A,,Clear,320,2012-10-18 17:35:00
12:55 PM,60.8,19.4,20,29.87,7.0,NW,33.4,44.9,N/A,,Partly Cloudy,310,2012-10-18 17:55:00
1:15 PM,60.8,19.4,20,29.86,5.0,NW,35.7,44.9,N/A,,Mostly Cloudy,310,2012-10-18 18:15:00
1:35 PM,62.6,19.4,19,29.86,4.0,NW,28.8,42.6,N/A,,Overcast,310,2012-10-18 18:35:00
1:55 PM,62.6,19.4,19,29.85,3.0,NW,27.6,44.9,N/A,,Overcast,310,2012-10-18 18:55:00
2:15 PM,62.6,19.4,19,29.84,3.0,NW,33.4,48.3,N/A,,Overcast,320,2012-10-18 19:15:00
2:35 PM,62.6,19.4,19,29.83,2.0,NW,32.2,48.3,N/A,,Overcast,320,2012-10-18 19:35:00
2:55 PM,62.6,17.6,18,29.83,1.8,NW,31.1,47.2,N/A,,Overcast,310,2012-10-18 19:55:00
3:15 PM,62.6,17.6,18,29.83,1.5,NW,36.8,48.3,N/A,,Overcast,320,2012-10-18 20:15:00
3:35 PM,62.6,17.6,18,29.83,1.5,NW,33.4,43.7,N/A,,Overcast,310,2012-10-18 20:35:00
3:55 PM,62.6,17.6,18,29.84,1.5,NW,33.4,43.7,N/A,,Overcast,320,2012-10-18 20:55:00
4:15 PM,62.6,17.6,18,29.84,1.5,NW,36.8,47.2,N/A,,Overcast,310,2012-10-18 21:15:00
4:35 PM,62.6,15.8,16,29.84,1.8,NW,28.8,43.7,N/A,,Overcast,320,2012-10-18 21:35:00
4:55 PM,62.6,15.8,16,29.85,1.8,NW,23.0,39.1,N/A,,Overcast,310,2012-10-18 21:55:00
5:15 PM,60.8,15.8,17,29.85,1.8,NW,31.1,40.3,N/A,,Overcast,310,2012-10-18 22:15:00
5:35 PM,60.8,15.8,17,29.84,1.8,NW,27.6,38.0,N/A,,Overcast,310,2012-10-18 22:35:00
5:55 PM,60.8,15.8,17,29.85,2.0,NW,25.3,34.5,N/A,,Overcast,310,2012-10-18 22:55:00
6:15 PM,60.8,17.6,19,29.85,2.5,NW,20.7,31.1,N/A,,Overcast,320,2012-10-18 23:15:00
6:35 PM,60.8,17.6,19,29.86,2.5,NW,21.9,32.2,N/A,,Overcast,310,2012-10-18 23:35:00
6:55 PM,59.0,17.6,20,29.87,3.0,NW,20.7,31.1,N/A,,Overcast,320,2012-10-18 23:55:00
7:15 PM,59.0,17.6,20,29.87,4.0,NW,24.2,33.4,N/A,,Overcast,310,2012-10-19 00:15:00
7:35 PM,57.2,17.6,21,29.88,5.0,NW,20.7,28.8,N/A,,Overcast,310,2012-10-19 00:35:00
7:55 PM,57.2,17.6,21,29.88,7.0,NW,18.4,28.8,N/A,,Overcast,310,2012-10-19 00:55:00
8:15 PM,57.2,17.6,21,29.89,7.0,NW,18.4,25.3,N/A,,Overcast,310,2012-10-19 01:15:00
8:35 PM,55.4,17.6,23,29.89,7.0,NW,17.3,23.0,N/A,,Overcast,310,2012-10-19 01:35:00
8:55 PM,55.4,17.6,23,29.90,7.0,NW,17.3,-,N/A,,Partly Cloudy,310,2012-10-19 01:55:00
9:15 PM,53.6,17.6,24,29.90,8.0,WNW,15.0,21.9,N/A,,Clear,300,2012-10-19 02:15:00
9:35 PM,53.6,17.6,24,29.90,8.0,WNW,13.8,-,N/A,,Clear,300,2012-10-19 02:35:00
9:55 PM,53.6,19.4,26,29.91,8.0,WNW,13.8,-,N/A,,Clear,300,2012-10-19 02:55:00
10:15 PM,53.6,19.4,26,29.91,8.0,WNW,13.8,-,N/A,,Clear,300,2012-10-19 03:15:00
10:35 PM,53.6,17.6,24,29.91,9.0,WNW,15.0,-,N/A,,Clear,300,2012-10-19 03:35:00
10:55 PM,51.8,17.6,26,29.91,10.0,WNW,16.1,-,N/A,,Clear,300,2012-10-19 03:55:00
11:15 PM,51.8,17.6,26,29.91,10.0,NW,13.8,20.7,N/A,,Clear,310,2012-10-19 04:15:00
11:35 PM,51.8,17.6,26,29.91,10.0,WNW,15.0,-,N/A,,Clear,300,2012-10-19 04:35:00
11:55 PM,51.8,17.6,26,29.91,10.0,WNW,16.1,20.7,N/A,,Clear,300,2012-10-19 04:55:00